JIELONG-3 DEB

Last updated on Tue Mar 10 2026 00:02:06 GMT+0000 (Coordinated Universal Time)

1 67754U 26027J 26068.58541938 .12424544 23987-5 30812-3 0 9998 2 67754 97.4912 200.1849 0053556 253.0553 106.4871 16.38523310 3949

Satellite not in orbit

JIELONG-3 DEB